Walla Walla, WA

3:21 PM PDT on October 19, 2017 (GMT -0700)
Walla Walla Regional

Weather History for KALW - September, 2013

Change the Weather History Date:

Saturday, September 28, 2013

  Actual Average Record
Temperature  
Mean Temperature 64 °F 61 °F  
Max Temperature 73 °F 73 °F 90 °F (1967)
Min Temperature 55 °F 49 °F 34 °F (1985)
Degree Days  
Heating Degree Days 1 5  
Month to date heating degree days 74  
Since 1 July heating degree days 87  
Cooling Degree Days 0 1  
Month to date cooling degree days 90  
Year to date cooling degree days 842  
Growing Degree Days 14 (Base 50)    
Moisture  
Dew Point 48 °F    
Average Humidity 57    
Maximum Humidity 84    
Minimum Humidity 32    
Precipitation  
Precipitation 0.18 in 0.03 in 0.54 in (1962)
Month to date precipitation 0.69  
Year to date precipitation 13.77  
Snow  
Snow 0.00 in 0.00 in 0.00 in (2002)
Month to date snowfall 0.0  
Year to date snowfall 6.0  
Since 1 July snowfall 0.0  
Snow Depth -    
Sea Level Pressure  
Sea Level Pressure 29.70 in    
Wind  
Wind Speed 15 mph (South)    
Max Wind Speed 31 mph    
Max Gust Speed 50 mph    
Visibility 9 miles    
Events Rain    
T = Trace of Precipitation, MM = Missing Value Source: NWS Daily Summary

Daily Weather History Graph

Daily Weather History Graph

Search for Another Location

Airport or City:

Trip Planner

Search our weather history database for the weather conditions in past years. The results will help you decide how hot, cold, wet, or windy it might be!

Date:

Astronomy

Sep. 28, 2013 Rise Set
Actual Time 6:48 AM PDT 6:38 PM PDT
Civil Twilight 6:18 AM PDT 7:08 PM PDT
Nautical Twilight 5:43 AM PDT 7:42 PM PDT
Astronomical Twilight 5:07 AM PDT 8:18 PM PDT
Moon 12:23 AM PDT (9/28) 3:15 PM PDT (9/28)
Length of Visible Light 12h 49m
Length of Day
11h 50m
Waning Crescent, 35% of the Moon is Illuminated
Sep 28
Waning Crescent
Oct 4
New
Oct 11
First Quarter
Oct 18
Full
Oct 26
Last Quarter

Hourly Weather History & Observations

Time (PDT) Temp. Dew Point Humidity Pressure Visibility Wind Dir Wind Speed Gust Speed Precip Events Conditions
12:53 AM 57.0 °F 48.9 °F 74% 29.92 in 10.0 mi SSW 8.1 mph - N/A   Overcast
1:53 AM 57.9 °F 48.9 °F 72% 29.91 in 10.0 mi South 11.5 mph - N/A   Overcast
2:53 AM 55.9 °F 51.1 °F 84% 29.91 in 6.0 mi South 6.9 mph - 0.04 in Rain Rain
3:53 AM 55.9 °F 51.1 °F 84% 29.89 in 5.0 mi South 8.1 mph - 0.09 in Rain Rain
4:53 AM 57.9 °F 51.1 °F 78% 29.86 in 10.0 mi South 13.8 mph - 0.02 in Rain Light Rain
5:53 AM 57.9 °F 51.1 °F 78% 29.85 in 10.0 mi SSE 11.5 mph - 0.02 in Rain Light Rain
6:53 AM 60.1 °F 48.9 °F 67% 29.82 in 10.0 mi SSE 16.1 mph - 0.00 in Rain Light Rain
7:53 AM 61.0 °F 50.0 °F 67% 29.80 in 10.0 mi SSE 12.7 mph 21.9 mph 0.00 in   Overcast
8:53 AM 63.0 °F 50.0 °F 63% 29.79 in 10.0 mi South 17.3 mph - 0.00 in   Overcast
9:53 AM 64.0 °F 50.0 °F 60% 29.78 in 10.0 mi SSE 17.3 mph 29.9 mph N/A   Overcast
10:53 AM 64.9 °F 48.9 °F 56% 29.75 in 10.0 mi SSE 20.7 mph 27.6 mph 0.00 in   Overcast
11:53 AM 66.9 °F 48.0 °F 51% 29.74 in 10.0 mi South 23.0 mph 31.1 mph N/A   Overcast
12:53 PM 66.9 °F 48.9 °F 52% 29.72 in 10.0 mi SSE 17.3 mph 25.3 mph N/A   Mostly Cloudy
1:53 PM 69.1 °F 48.0 °F 47% 29.69 in 10.0 mi SSE 23.0 mph 34.5 mph N/A   Mostly Cloudy
2:53 PM 68.0 °F 48.0 °F 49% 29.68 in 10.0 mi SSE 18.4 mph 27.6 mph N/A   Mostly Cloudy
3:53 PM 69.1 °F 46.9 °F 45% 29.65 in 10.0 mi South 25.3 mph 35.7 mph N/A   Overcast
4:53 PM 69.1 °F 46.0 °F 44% 29.64 in 10.0 mi South 23.0 mph 29.9 mph 0.00 in   Partly Cloudy
4:56 PM 69.8 °F 46.4 °F 43% 29.64 in 10.0 mi South 21.9 mph 29.9 mph N/A   Partly Cloudy
5:53 PM 70.0 °F 45.0 °F 41% 29.59 in 10.0 mi South 20.7 mph 31.1 mph N/A   Clear
6:53 PM 71.1 °F 44.1 °F 38% 29.54 in 10.0 mi South 20.7 mph 34.5 mph 0.00 in   Overcast
7:53 PM 72.0 °F 44.1 °F 37% 29.52 in 10.0 mi South 28.8 mph 40.3 mph 0.00 in   Overcast
8:53 PM 72.0 °F 44.1 °F 37% 29.48 in 10.0 mi South 27.6 mph 39.1 mph N/A   Overcast
9:53 PM 73.9 °F 42.1 °F 32% 29.46 in 10.0 mi South 31.1 mph 42.6 mph N/A   Overcast
10:53 PM 72.0 °F 43.0 °F 35% 29.46 in 10.0 mi South 23.0 mph 28.8 mph N/A   Overcast
11:22 PM 60.8 °F 53.6 °F 77% 29.56 in 4.0 mi West 24.2 mph 49.5 mph 0.01 in Rain Rain
11:53 PM 55.0 °F 48.0 °F 77% 29.62 in 10.0 mi West 18.4 mph 27.6 mph 0.01 in Rain Light Rain